When you browse on this site, cookies collect data to enhance your experience and personalize the content and advertising you see.
Visit our Privacy Policy to learn more. By continuing to use the site, you agree to this use of cookies and data.
  • în România
  • Lista ţărilor
  • Pe 7 zile
  • Temperatura apei
  • Hartă satelitară
  • Meteo pe hartă
  • Widget-uri
  • user-avatar
    Intrare

    Meteo pe oră la Verhnesorokino

    Astăzi, 20 Mai, Luni

    Timp Temperatura Precipitaţii Vânt Presiune Umiditate
    00:00 0°C° 0 mm 3 m/s 743 mmHg 92%
    01:00 0°C° 0 mm 3 m/s 744 mmHg 93%
    02:00 -1°C° 0 mm 3 m/s 744 mmHg 94%
    03:00 -1°C° 0 mm 3 m/s 744 mmHg 95%
    04:00 -1°C° 0 mm 3 m/s 744 mmHg 96%
    05:00 0°C° 0 mm 3 m/s 744 mmHg 93%
    06:00 0°C° 0 mm 4 m/s 744 mmHg 90%
    07:00 +1°C° 0 mm 4 m/s 744 mmHg 87%
    08:00 +3°C° 0.1 mm 4 m/s 745 mmHg 83%
    09:00 +3°C° 0.1 mm 5 m/s 745 mmHg 80%
    10:00 +5°C° 0 mm 5 m/s 745 mmHg 76%
    11:00 +6°C° 0.3 mm 5 m/s 745 mmHg 72%
    12:00 +6°C° 0.3 mm 5 m/s 744 mmHg 69%
    13:00 +7°C° 0.3 mm 5 m/s 744 mmHg 66%
    14:00 +8°C° 0.3 mm 5 m/s 744 mmHg 63%
    15:00 +8°C° 0.3 mm 5 m/s 745 mmHg 60%
    16:00 +8°C° 0 mm 4 m/s 745 mmHg 56%
    17:00 +8°C° 0.2 mm 4 m/s 745 mmHg 60%
    18:00 +9°C° 0.2 mm 3 m/s 745 mmHg 63%
    19:00 +8°C° 0.2 mm 2 m/s 745 mmHg 67%
    20:00 +7°C° 0 mm 2 m/s 745 mmHg 71%
    21:00 +5°C° 0 mm 2 m/s 745 mmHg 74%
    22:00 +4°C° 0 mm 2 m/s 746 mmHg 78%
    23:00 +3°C° 0 mm 2 m/s 746 mmHg 80%

    Mâine, 21 Mai, Marţi

    Timp Temperatura Precipitaţii Vânt Presiune Umiditate
    00:00 +3°C° 0 mm 2 m/s 746 mmHg 81%
    01:00 +1°C° 0 mm 3 m/s 746 mmHg 82%
    02:00 +2°C° 0 mm 2 m/s 746 mmHg 82%
    03:00 +2°C° 0 mm 2 m/s 746 mmHg 82%
    04:00 +2°C° 0 mm 2 m/s 746 mmHg 82%
    05:00 +3°C° 0 mm 2 m/s 746 mmHg 78%
    06:00 +4°C° 0 mm 3 m/s 747 mmHg 73%
    07:00 +5°C° 0 mm 3 m/s 747 mmHg 69%
    08:00 +7°C° 0 mm 4 m/s 747 mmHg 61%
    09:00 +8°C° 0 mm 5 m/s 747 mmHg 53%
    10:00 +9°C° 0 mm 6 m/s 747 mmHg 45%
    11:00 +10°C° 0 mm 6 m/s 747 mmHg 44%
    12:00 +10°C° 0 mm 6 m/s 747 mmHg 43%
    13:00 +11°C° 0 mm 6 m/s 747 mmHg 42%
    14:00 +11°C° 0 mm 6 m/s 747 mmHg 42%
    15:00 +12°C° 0 mm 5 m/s 747 mmHg 42%
    16:00 +12°C° 0 mm 5 m/s 747 mmHg 42%
    17:00 +12°C° 0 mm 4 m/s 747 mmHg 47%
    18:00 +11°C° 0 mm 4 m/s 747 mmHg 53%
    19:00 +10°C° 0 mm 3 m/s 747 mmHg 58%
    20:00 +9°C° 0 mm 2 m/s 747 mmHg 60%
    21:00 +7°C° 0 mm 2 m/s 748 mmHg 63%
    22:00 +6°C° 0 mm 2 m/s 748 mmHg 65%
    23:00 +5°C° 0 mm 2 m/s 748 mmHg 67%

    Poimâine, 22 Mai, Miercuri

    Timp Temperatura Precipitaţii Vânt Presiune Umiditate
    00:00 +5°C° 0 mm 2 m/s 748 mmHg 69%
    01:00 +4°C° 0 mm 2 m/s 748 mmHg 70%
    02:00 +3°C° 0 mm 2 m/s 748 mmHg 72%
    03:00 +3°C° 0 mm 2 m/s 748 mmHg 74%
    04:00 +3°C° 0 mm 2 m/s 748 mmHg 75%
    05:00 +4°C° 0 mm 2 m/s 748 mmHg 72%
    06:00 +6°C° 0 mm 2 m/s 748 mmHg 69%
    07:00 +7°C° 0 mm 3 m/s 748 mmHg 65%
    08:00 +9°C° 0 mm 3 m/s 748 mmHg 59%
    09:00 +11°C° 0 mm 3 m/s 748 mmHg 52%
    10:00 +13°C° 0 mm 4 m/s 748 mmHg 46%
    11:00 +13°C° 0 mm 4 m/s 748 mmHg 44%
    12:00 +14°C° 0 mm 4 m/s 747 mmHg 41%
    13:00 +15°C° 0 mm 4 m/s 747 mmHg 39%
    14:00 +15°C° 0 mm 4 m/s 747 mmHg 40%
    15:00 +15°C° 0 mm 4 m/s 746 mmHg 41%
    16:00 +15°C° 0 mm 4 m/s 746 mmHg 42%
    17:00 +16°C° 0 mm 3 m/s 746 mmHg 48%
    18:00 +15°C° 0 mm 2 m/s 746 mmHg 54%
    19:00 +14°C° 0 mm 2 m/s 745 mmHg 60%
    20:00 +13°C° 0 mm 2 m/s 745 mmHg 62%
    21:00 +12°C° 0 mm 2 m/s 745 mmHg 64%
    22:00 +10°C° 0 mm 2 m/s 745 mmHg 65%
    23:00 +9°C° 0 mm 2 m/s 745 mmHg 72%

    23 Mai, Joi

    Timp Temperatura Precipitaţii Vânt Presiune Umiditate
    00:00 +9°C° 0 mm 2 m/s 745 mmHg 78%
    01:00 +9°C° 0 mm 2 m/s 745 mmHg 84%
    02:00 +8°C° 0 mm 3 m/s 744 mmHg 88%
    03:00 +7°C° 0 mm 3 m/s 744 mmHg 91%
    04:00 +7°C° 0 mm 3 m/s 743 mmHg 95%
    05:00 +7°C° 0.2 mm 3 m/s 742 mmHg 94%
    06:00 +7°C° 0.2 mm 4 m/s 742 mmHg 94%
    07:00 +8°C° 0.2 mm 5 m/s 741 mmHg 93%
    08:00 +8°C° 1.9 mm 5 m/s 741 mmHg 94%
    09:00 +10°C° 1.9 mm 4 m/s 740 mmHg 95%
    10:00 +11°C° 1.9 mm 4 m/s 739 mmHg 96%
    11:00 +13°C° 0.6 mm 5 m/s 739 mmHg 89%
    12:00 +15°C° 0.6 mm 7 m/s 738 mmHg 82%
    13:00 +17°C° 0.6 mm 8 m/s 738 mmHg 75%
    14:00 +16°C° 2.9 mm 8 m/s 737 mmHg 81%
    15:00 +15°C° 2.9 mm 7 m/s 737 mmHg 86%
    16:00 +14°C° 2.9 mm 7 m/s 736 mmHg 92%
    17:00 +14°C° 1 mm 7 m/s 736 mmHg 92%
    18:00 +14°C° 1 mm 6 m/s 736 mmHg 92%
    19:00 +14°C° 1 mm 6 m/s 736 mmHg 93%
    20:00 +13°C° 1.9 mm 6 m/s 736 mmHg 93%
    21:00 +11°C° 1.9 mm 6 m/s 736 mmHg 93%
    22:00 +10°C° 1.9 mm 6 m/s 736 mmHg 92%
    23:00 +9°C° 0 mm 6 m/s 737 mmHg 93%

    24 Mai, Vineri

    Timp Temperatura Precipitaţii Vânt Presiune Umiditate
    00:00 +7°C° 0 mm 5 m/s 737 mmHg 93%
    01:00 +6°C° 0 mm 5 m/s 738 mmHg 93%
    02:00 +4°C° 0 mm 4 m/s 739 mmHg 92%
    03:00 +3°C° 0 mm 4 m/s 740 mmHg 90%
    04:00 +1°C° 0 mm 4 m/s 741 mmHg 88%
    05:00 +3°C° 0 mm 4 m/s 742 mmHg 83%
    06:00 +3°C° 0 mm 4 m/s 742 mmHg 78%
    07:00 +4°C° 0 mm 4 m/s 743 mmHg 74%
    08:00 +5°C° 0 mm 4 m/s 743 mmHg 68%
    09:00 +6°C° 0 mm 4 m/s 744 mmHg 63%
    10:00 +7°C° 0 mm 4 m/s 744 mmHg 58%
    11:00 +8°C° 0 mm 5 m/s 744 mmHg 57%
    12:00 +8°C° 0 mm 5 m/s 745 mmHg 57%
    13:00 +9°C° 0 mm 5 m/s 745 mmHg 56%
    14:00 +9°C° 0 mm 5 m/s 745 mmHg 54%
    15:00 +9°C° 0 mm 5 m/s 745 mmHg 52%
    16:00 +10°C° 0 mm 5 m/s 745 mmHg 51%
    17:00 +10°C° 0 mm 4 m/s 746 mmHg 55%
    18:00 +10°C° 0 mm 3 m/s 746 mmHg 60%
    19:00 +9°C° 0 mm 3 m/s 746 mmHg 64%
    20:00 +8°C° 0 mm 3 m/s 747 mmHg 67%
    21:00 +6°C° 0 mm 2 m/s 747 mmHg 69%
    22:00 +5°C° 0 mm 2 m/s 747 mmHg 71%
    23:00 +4°C° 0 mm 2 m/s 748 mmHg 71%

    25 Mai, Sâmbătă

    Timp Temperatura Precipitaţii Vânt Presiune Umiditate
    00:00 +4°C° 0 mm 2 m/s 748 mmHg 71%
    01:00 +3°C° 0 mm 2 m/s 748 mmHg 71%
    02:00 +3°C° 0 mm 2 m/s 748 mmHg 73%
    03:00 +2°C° 0 mm 2 m/s 749 mmHg 75%
    04:00 +2°C° 0 mm 1 m/s 749 mmHg 77%
    05:00 +4°C° 0 mm 1 m/s 749 mmHg 73%
    06:00 +6°C° 0 mm 1 m/s 750 mmHg 68%
    07:00 +7°C° 0 mm 1 m/s 750 mmHg 64%
    08:00 +8°C° 0 mm 2 m/s 750 mmHg 59%
    09:00 +9°C° 0 mm 3 m/s 750 mmHg 54%
    10:00 +11°C° 0 mm 3 m/s 751 mmHg 49%
    11:00 +12°C° 0 mm 4 m/s 751 mmHg 48%
    12:00 +12°C° 0 mm 4 m/s 751 mmHg 47%
    13:00 +13°C° 0 mm 4 m/s 751 mmHg 46%
    14:00 +13°C° 0 mm 4 m/s 751 mmHg 46%
    15:00 +13°C° 0 mm 3 m/s 751 mmHg 46%
    16:00 +14°C° 0 mm 3 m/s 751 mmHg 46%
    17:00 +14°C° 0 mm 2 m/s 751 mmHg 51%
    18:00 +14°C° 0 mm 1 m/s 751 mmHg 56%
    19:00 +12°C° 0 mm 0 m/s 751 mmHg 61%
    20:00 +11°C° 0 mm 1 m/s 751 mmHg 63%
    21:00 +10°C° 0 mm 1 m/s 751 mmHg 65%
    22:00 +7°C° 0 mm 2 m/s 751 mmHg 67%
    23:00 +7°C° 0 mm 2 m/s 751 mmHg 68%
    Arată mai mult